Wind_Speed
17 16 16 15 14 11 5 2 9 14 20 22 19 18 19 20 21 19 17 15 13 14 15 16 17 16 16 15 15 15 14 15 15 15 14 14 13 12 12 10 9 8 7 7 6 5 4 3 3
18 18 18 17 16 12 4 5 13 17 23 25 22 18 18 21 21 19 19 17 16 16 17 17 17 17 17 16 16 16 16 16 16 16 15 15 14 13 13 12 10 9 8 8 7 6 5 4 4
19 19 19 19 17 12 8 10 15 17 23 25 23 20 19 21 20 19 19 19 18 18 19 20 20 20 19 19 18 18 18 17 17 17 16 16 15 15 14 13 12 10 10 9 8 7 6 5 5
19 19 20 20 17 12 11 13 17 18 21 22 22 21 19 20 21 20 20 20 20 18 19 20 21 21 21 21 21 20 19 18 18 18 18 17 17 16 15 14 13 12 11 10 9 8 6 6 6
19 19 19 19 16 12 13 16 21 22 21 22 22 21 22 21 20 19 19 21 20 18 18 19 21 22 23 22 21 21 21 20 19 20 19 19 18 18 17 16 14 13 12 11 10 8 8 7 7
18 18 18 16 12 10 13 18 23 24 22 21 21 21 24 23 20 19 19 20 21 20 19 20 20 23 23 23 23 22 21 21 20 21 20 20 20 19 19 18 16 14 13 12 11 10 9 8 8
17 18 17 14 11 12 15 21 24 24 22 20 20 21 25 26 24 20 19 20 21 21 20 20 20 21 23 23 23 23 22 22 22 22 22 21 21 20 20 19 17 16 14 13 12 11 10 10 9
17 17 16 14 13 14 18 24 27 28 24 21 22 23 27 29 25 21 19 21 22 21 20 20 19 20 21 22 23 23 23 23 22 22 22 22 21 21 21 20 18 17 16 15 14 13 12 11 11
16 16 14 10 11 15 19 25 26 27 25 23 24 25 29 31 27 23 22 22 23 22 21 21 21 21 22 23 24 24 23 24 24 23 23 22 22 22 22 21 20 18 17 16 15 14 13 12 12
15 15 12 11 19 23 23 24 24 24 24 23 23 25 30 31 28 25 24 23 24 23 22 23 24 24 24 24 25 26 25 25 25 24 24 24 23 23 23 22 21 19 19 18 16 16 15 14 14
15 16 15 17 23 26 26 24 24 24 24 22 20 22 28 31 29 27 27 26 26 25 24 23 24 25 25 25 25 24 24 26 27 26 26 25 24 23 23 22 21 20 20 19 18 17 17 16 16
16 16 18 21 24 24 24 24 24 24 24 23 23 25 30 31 30 29 29 29 28 27 24 23 23 24 25 25 25 24 25 26 26 26 26 26 25 24 24 23 22 21 21 20 19 19 18 18 18
17 17 19 21 22 22 23 23 23 24 23 24 26 28 31 31 29 30 30 31 30 28 25 25 25 25 25 25 25 26 26 27 26 27 27 26 26 26 25 23 22 22 22 21 21 20 19 19 19
17 18 18 19 21 21 22 22 23 22 23 25 26 28 30 30 31 30 31 30 29 28 27 26 25 25 25 24 24 25 27 26 27 26 27 26 25 26 27 24 23 23 22 22 22 22 21 21 21
16 16 17 18 20 20 21 20 20 21 23 25 24 26 28 30 29 32 32 30 30 29 28 27 26 26 27 25 26 26 26 26 27 26 27 27 26 26 25 25 24 24 24 24 23 23 23 23 22
13 14 13 13 16 18 20 18 15 19 22 23 23 24 25 28 30 32 32 31 30 30 28 27 27 28 26 26 25 26 25 25 26 25 25 25 26 25 25 25 24 25 25 25 25 25 24 24 24
9 11 8 9 17 21 21 16 14 20 22 23 23 24 24 28 31 33 33 33 32 31 29 30 29 28 27 26 25 26 25 24 23 22 22 23 25 25 25 26 25 26 26 26 26 26 26 26 26
7 11 11 13 18 22 21 17 17 19 21 24 25 24 26 29 32 33 33 33 32 32 32 32 30 29 29 27 27 25 25 23 23 23 23 23 24 24 26 25 26 26 26 27 27 28 28 28 28
15 16 18 18 18 22 22 20 21 22 23 25 27 26 27 30 32 33 34 33 34 33 33 33 32 31 29 28 27 26 24 22 22 22 22 23 24 25 25 25 27 27 27 29 30 30 30 30 29
16 16 16 16 17 22 23 21 21 23 25 27 28 28 28 30 33 33 34 34 35 35 35 34 34 31 30 28 27 25 23 21 21 20 20 21 21 23 24 26 27 28 28 29 30 30 31 31 31
14 14 15 16 19 22 22 22 22 25 27 28 28 28 27 30 32 34 34 35 36 36 35 36 35 33 31 29 27 26 24 22 21 21 22 21 21 23 26 26 27 29 29 30 31 32 31 32 32
14 13 17 18 20 21 20 24 24 27 29 30 29 28 27 29 30 32 34 35 37 38 37 37 36 35 33 31 28 26 25 24 23 23 23 22 23 23 24 25 26 27 28 29 30 31 32 32 33
15 15 18 19 20 21 21 25 26 27 29 30 26 24 24 25 27 29 32 34 35 37 37 38 37 36 35 32 29 28 26 25 24 24 24 24 25 25 25 26 26 27 29 29 30 32 33 33 34
16 16 17 16 18 21 21 24 26 28 29 28 26 21 20 21 23 25 28 31 32 34 35 37 36 36 35 33 31 31 29 27 26 26 26 26 26 26 27 28 27 27 29 31 32 33 35 35 35
16 16 16 16 19 21 22 24 26 26 25 26 22 19 19 20 22 23 25 27 29 31 32 34 34 34 34 32 32 32 30 28 27 26 26 26 26 27 28 29 29 29 30 30 32 33 34 34 34
15 15 16 19 20 22 23 24 23 23 21 17 16 17 18 20 20 22 23 25 27 28 30 31 32 32 32 31 31 31 29 29 28 27 27 26 26 27 28 28 28 29 30 30 31 32 32 33 34
14 13 14 19 20 23 23 24 21 18 19 16 15 16 18 19 19 21 22 23 25 26 27 29 31 31 32 32 31 31 30 29 27 27 27 26 26 26 26 26 27 27 27 28 29 29 30 32 33
12 11 14 16 19 21 20 21 22 21 18 14 14 15 16 16 18 20 21 21 22 24 26 27 29 31 31 32 32 30 30 29 27 28 28 27 27 27 26 26 26 25 25 26 26 27 29 30 30
13 13 14 15 17 20 21 22 24 20 18 15 14 15 15 16 18 20 20 20 21 22 23 25 26 28 30 31 31 31 29 29 28 28 28 28 28 27 26 26 27 26 25 26 27 27 28 29 30
14 14 14 16 16 18 20 23 23 20 18 16 15 15 16 17 18 20 21 21 22 22 23 24 25 26 28 28 29 29 29 29 28 28 28 27 27 27 27 27 27 26 26 26 27 27 28 29 30
Wind_Direction
258 256 255 253 252 250 241 224 258 260 263 269 268 263 264 264 263 267 276 281 274 263 261 254 246 241 237 235 231 231 234 236 238 241 245 249 251 255 257 257 257 257 254 251 249 245 243 240 241
257 255 253 252 250 243 261 270 248 250 258 268 277 273 264 263 265 269 274 279 277 266 262 256 249 245 241 240 239 238 240 241 242 245 250 255 257 260 262 261 259 259 257 253 250 245 238 235 236
256 253 252 252 249 236 209 243 244 249 260 269 274 272 267 267 269 267 269 272 272 269 264 256 251 248 246 244 244 244 244 245 247 250 253 257 261 263 264 262 260 260 259 255 250 244 238 236 235
256 253 251 251 250 231 212 250 257 251 260 271 274 274 272 269 269 268 266 265 267 267 266 260 254 250 246 245 244 246 247 248 250 252 255 258 261 263 263 263 261 261 260 256 250 243 240 237 236
255 253 252 252 251 234 220 240 255 255 260 268 272 275 271 270 269 269 267 264 263 263 263 263 258 252 248 244 244 247 249 250 252 253 256 259 260 261 262 262 260 260 259 256 250 245 241 237 236
253 252 252 252 255 258 246 241 249 254 258 264 270 270 271 272 271 272 270 265 264 263 264 266 263 256 250 246 245 248 250 251 253 255 256 257 259 260 261 260 259 258 257 255 250 245 242 239 238
253 251 250 247 241 244 251 247 247 253 255 256 260 264 267 271 272 269 268 267 265 262 262 264 264 260 253 249 250 251 252 253 254 255 256 257 257 258 258 258 258 257 255 254 250 245 244 242 241
251 250 247 242 238 239 243 248 248 250 250 248 249 254 258 265 267 268 268 265 265 262 261 261 260 258 256 253 252 252 253 252 253 255 256 256 256 257 257 256 256 255 253 252 250 246 246 245 244
250 250 249 240 250 250 247 252 255 259 256 246 246 251 257 263 267 267 265 264 263 262 260 259 257 258 258 257 254 251 253 252 252 254 255 256 257 257 256 256 254 253 252 251 250 249 248 248 248
251 250 242 242 239 236 237 248 257 259 264 258 252 252 258 262 264 261 260 259 261 261 259 258 258 258 258 259 256 251 252 253 252 252 253 254 255 254 255 255 253 253 252 252 252 251 251 251 251
251 250 238 240 250 250 251 253 258 260 260 260 253 252 258 263 264 260 258 256 256 257 257 257 257 257 258 258 256 253 254 253 251 250 251 251 252 253 253 251 251 251 252 253 252 253 253 253 252
259 254 250 250 258 263 263 261 259 261 261 255 250 247 251 259 263 260 255 256 253 253 253 253 256 257 258 257 257 257 257 253 252 248 248 248 249 250 249 250 251 250 251 253 253 253 254 254 253
264 264 263 264 266 268 267 266 266 264 263 257 250 249 252 256 261 260 256 254 255 252 253 251 253 254 257 256 256 256 254 253 253 249 248 246 247 248 250 251 251 250 250 252 254 254 254 254 254
262 267 269 270 272 271 272 271 270 270 265 261 256 254 255 254 256 254 252 252 252 252 251 250 249 252 254 254 256 256 254 252 254 249 248 244 245 247 248 249 248 248 248 252 254 255 255 254 255
267 271 274 277 278 276 276 275 275 271 265 264 262 258 257 254 250 249 250 249 251 252 250 249 251 253 254 256 258 255 253 251 250 249 248 245 246 248 247 250 249 249 249 249 252 254 255 256 257
275 277 281 296 286 277 277 277 270 268 266 265 262 257 254 252 249 249 251 249 248 250 251 249 252 254 256 256 260 256 254 252 251 246 246 246 247 247 249 248 248 250 249 251 252 253 255 257 258
297 302 303 283 271 277 281 275 259 259 264 266 265 257 249 251 250 249 251 249 247 247 249 251 251 251 252 255 256 257 254 257 254 248 247 251 248 250 250 248 248 249 250 252 252 254 255 256 257
290 281 272 258 267 276 279 274 263 259 263 267 266 259 249 247 250 250 250 247 244 245 247 250 252 251 250 254 252 251 253 255 254 252 253 251 248 252 254 254 253 251 250 253 254 255 255 256 256
247 242 242 250 253 263 272 270 264 261 260 261 263 258 252 249 250 251 250 248 246 248 248 249 250 252 250 250 252 252 252 255 258 261 262 256 253 257 259 259 257 254 253 253 253 254 255 256 257
263 260 260 264 263 265 270 268 263 262 261 259 260 259 254 252 251 252 250 248 246 246 245 247 249 252 254 252 254 257 257 259 265 268 267 264 263 263 264 263 262 258 256 255 254 254 255 257 259
274 270 263 258 258 266 276 276 270 265 261 260 261 261 257 253 252 252 249 248 247 247 246 246 248 251 253 255 257 257 260 264 267 268 269 271 268 267 267 267 262 261 260 257 257 256 255 258 260
279 276 269 265 268 271 273 272 267 266 264 265 261 257 257 254 252 250 248 247 247 246 246 247 248 249 251 253 254 255 258 261 266 270 270 273 273 273 271 268 266 263 262 260 260 258 258 258 259
272 268 268 270 272 273 269 270 270 264 267 271 264 257 254 254 253 251 249 247 246 246 246 246 247 249 252 253 253 255 256 260 265 269 271 272 271 271 272 272 271 268 263 260 260 260 259 260 260
284 281 280 283 280 275 276 272 269 268 273 272 271 271 260 257 257 253 250 249 248 247 247 246 248 249 251 254 254 256 259 263 266 267 269 271 271 270 271 272 272 269 264 262 261 262 261 261 260
287 288 288 284 280 281 279 274 269 271 274 272 270 271 265 260 258 253 250 247 247 247 248 247 247 248 251 253 255 259 262 263 268 268 268 270 269 268 267 268 270 268 267 263 260 261 259 259 260
284 280 281 282 285 287 288 282 275 271 275 273 270 268 266 262 257 253 251 249 248 248 248 247 247 250 252 255 257 261 263 265 267 268 268 269 269 269 269 269 268 267 268 265 262 261 260 259 260
286 271 270 275 283 287 289 286 283 277 275 268 271 272 268 263 257 253 253 252 249 248 249 248 249 251 253 256 259 262 264 265 267 269 269 269 270 270 270 271 270 270 268 264 264 263 262 262 262
282 269 270 277 284 288 289 291 292 292 275 265 270 270 268 264 260 257 255 255 251 249 249 249 250 251 253 256 258 258 259 261 263 266 269 271 272 271 269 271 270 270 268 265 265 265 265 264 265
277 276 276 280 281 285 290 293 293 295 290 284 278 269 264 263 263 260 258 257 256 252 251 249 249 251 252 254 257 259 259 260 262 264 266 268 269 269 267 268 269 270 268 266 268 269 270 270 272
265 267 271 279 281 280 286 294 297 295 294 285 280 272 267 264 263 263 263 261 258 256 256 251 250 251 253 255 256 257 259 260 260 262 265 267 267 267 267 267 267 267 270 270 271 272 273 275 276
Height
5871 5872 5873 5874 5877 5879 5880 5882 5885 5885 5882 5881 5881 5882 5881 5881 5880 5882 5879 5878 5880 5881 5882 5883 5884 5885 5886 5887 5888 5889 5890 5891 5891 5892 5893 5893 5893 5894 5894 5894 5893 5893 5893 5893 5893 5893 5893 5893 5893
5867 5869 5870 5871 5873 5875 5879 5882 5884 5882 5879 5878 5878 5880 5879 5877 5877 5878 5877 5877 5879 5879 5880 5881 5882 5883 5885 5886 5887 5888 5889 5889 5890 5891 5892 5892 5892 5893 5893 5892 5892 5892 5892 5892 5892 5892 5892 5892 5892
5863 5864 5866 5868 5870 5872 5877 5880 5880 5877 5876 5876 5877 5876 5876 5875 5875 5876 5875 5875 5876 5878 5878 5879 5880 5881 5882 5884 5885 5886 5886 5887 5888 5889 5890 5891 5891 5891 5891 5891 5891 5891 5891 5891 5891 5891 5891 5892 5892
5859 5861 5863 5865 5867 5870 5874 5877 5876 5875 5873 5873 5874 5873 5873 5873 5872 5873 5873 5873 5874 5876 5876 5876 5877 5878 5880 5881 5882 5883 5884 5885 5886 5887 5888 5889 5889 5889 5890 5890 5890 5890 5890 5890 5890 5890 5891 5891 5891
5855 5857 5859 5861 5863 5867 5871 5875 5874 5873 5872 5871 5871 5871 5868 5869 5868 5870 5871 5871 5871 5873 5873 5873 5874 5876 5877 5878 5879 5880 5881 5882 5883 5884 5885 5886 5887 5887 5887 5888 5888 5888 5888 5889 5889 5889 5890 5890 5891
5851 5853 5855 5857 5860 5864 5869 5871 5870 5869 5869 5870 5869 5868 5865 5865 5864 5867 5867 5868 5868 5869 5869 5869 5871 5872 5873 5875 5876 5877 5878 5879 5880 5881 5882 5883 5884 5885 5885 5886 5886 5886 5887 5887 5887 5888 5889 5889 5890
5848 5849 5850 5853 5857 5863 5868 5867 5866 5865 5865 5867 5866 5865 5862 5861 5862 5863 5864 5864 5865 5866 5866 5867 5867 5869 5869 5871 5872 5873 5874 5876 5877 5878 5879 5880 5881 5882 5882 5883 5884 5884 5885 5885 5886 5886 5887 5888 5888
5843 5845 5846 5850 5854 5858 5862 5860 5858 5858 5860 5862 5862 5861 5858 5857 5857 5859 5861 5861 5861 5862 5862 5863 5864 5865 5866 5867 5869 5870 5871 5872 5873 5874 5876 5877 5878 5879 5879 5880 5881 5882 5882 5883 5884 5885 5886 5886 5887
5839 5842 5843 5847 5851 5855 5855 5853 5852 5852 5853 5855 5856 5856 5853 5852 5853 5856 5856 5857 5857 5858 5859 5860 5861 5862 5863 5864 5865 5866 5867 5868 5870 5871 5872 5873 5875 5875 5876 5877 5878 5879 5880 5880 5881 5883 5884 5884 5885
5835 5838 5840 5844 5845 5845 5846 5846 5846 5847 5847 5849 5850 5850 5848 5847 5849 5851 5851 5852 5853 5854 5855 5856 5857 5858 5859 5860 5861 5862 5863 5864 5865 5867 5868 5870 5871 5872 5873 5874 5875 5876 5877 5878 5879 5880 5881 5882 5883
5831 5833 5835 5837 5837 5838 5839 5839 5840 5841 5843 5844 5845 5846 5844 5842 5844 5845 5846 5846 5848 5849 5849 5850 5852 5853 5854 5855 5856 5857 5858 5859 5861 5862 5864 5865 5867 5868 5868 5870 5871 5872 5874 5875 5876 5877 5878 5880 5881
5828 5829 5830 5831 5831 5831 5833 5834 5834 5835 5837 5838 5839 5840 5839 5838 5838 5839 5840 5840 5841 5842 5842 5844 5846 5848 5849 5851 5851 5852 5853 5854 5855 5857 5859 5861 5862 5864 5865 5866 5867 5869 5871 5872 5873 5874 5875 5877 5878
5824 5824 5825 5826 5826 5826 5827 5828 5829 5829 5830 5831 5832 5833 5833 5833 5831 5832 5833 5834 5834 5836 5837 5839 5841 5843 5844 5845 5845 5847 5848 5850 5851 5852 5854 5856 5858 5860 5861 5862 5864 5865 5867 5868 5869 5871 5872 5873 5874
5820 5820 5821 5821 5821 5821 5822 5822 5823 5824 5824 5824 5826 5827 5827 5827 5827 5825 5825 5826 5828 5831 5832 5834 5836 5837 5838 5840 5840 5841 5842 5844 5844 5846 5848 5851 5852 5854 5856 5858 5859 5861 5863 5864 5865 5867 5868 5869 5870
5815 5816 5817 5817 5816 5816 5817 5818 5818 5818 5818 5819 5819 5820 5821 5821 5821 5819 5819 5821 5823 5825 5825 5827 5830 5832 5833 5835 5836 5836 5837 5838 5840 5842 5843 5845 5847 5849 5851 5853 5855 5856 5857 5859 5860 5862 5864 5865 5866
5812 5812 5813 5813 5812 5812 5814 5814 5814 5813 5813 5813 5813 5813 5814 5814 5814 5813 5814 5816 5818 5819 5820 5822 5824 5826 5827 5829 5831 5832 5831 5833 5835 5836 5838 5840 5842 5843 5845 5848 5849 5851 5853 5855 5855 5857 5859 5860 5861
5808 5809 5811 5813 5810 5809 5809 5809 5810 5808 5808 5807 5807 5808 5809 5808 5808 5809 5808 5810 5813 5813 5815 5817 5817 5821 5823 5824 5826 5827 5828 5828 5829 5831 5833 5834 5836 5838 5839 5842 5844 5845 5847 5849 5850 5852 5854 5855 5856
5809 5810 5812 5812 5810 5806 5804 5804 5804 5804 5803 5802 5802 5802 5803 5802 5801 5802 5802 5803 5804 5807 5810 5812 5814 5815 5817 5819 5820 5822 5822 5823 5825 5826 5828 5828 5829 5831 5834 5836 5838 5839 5842 5843 5845 5847 5848 5849 5850
5803 5804 5805 5806 5805 5802 5801 5800 5800 5799 5798 5797 5796 5796 5795 5796 5796 5796 5796 5797 5798 5801 5804 5806 5808 5810 5810 5813 5815 5817 5818 5819 5821 5822 5823 5823 5823 5826 5828 5831 5832 5834 5836 5837 5839 5841 5842 5843 5844
5797 5798 5799 5800 5800 5797 5796 5795 5793 5793 5791 5790 5789 5788 5789 5789 5789 5790 5791 5792 5793 5794 5797 5800 5802 5804 5804 5805 5808 5811 5813 5814 5816 5817 5818 5817 5819 5820 5822 5824 5826 5827 5829 5831 5832 5834 5836 5837 5838
5793 5793 5794 5794 5794 5791 5791 5789 5788 5787 5784 5782 5781 5781 5782 5782 5783 5784 5785 5786 5787 5788 5791 5794 5796 5798 5799 5800 5803 5806 5807 5809 5811 5812 5812 5812 5814 5815 5817 5818 5820 5821 5823 5825 5826 5827 5829 5831 5832
5789 5790 5789 5788 5787 5786 5787 5784 5783 5780 5778 5775 5774 5774 5775 5775 5776 5777 5778 5780 5781 5783 5785 5787 5789 5791 5793 5795 5797 5799 5801 5803 5805 5807 5808 5809 5809 5810 5812 5813 5814 5816 5817 5818 5819 5821 5822 5824 5825
5784 5784 5783 5782 5781 5780 5780 5778 5776 5773 5771 5769 5766 5766 5768 5770 5770 5772 5772 5773 5774 5776 5778 5780 5783 5785 5786 5789 5791 5793 5795 5797 5799 5801 5803 5804 5805 5805 5806 5807 5809 5809 5811 5812 5813 5814 5815 5817 5818
5779 5779 5777 5776 5776 5775 5774 5772 5768 5766 5764 5763 5762 5763 5763 5765 5766 5766 5767 5767 5768 5770 5772 5774 5776 5778 5780 5783 5785 5787 5790 5792 5793 5795 5797 5799 5799 5800 5801 5802 5802 5803 5804 5805 5806 5807 5808 5809 5810
5776 5775 5774 5773 5771 5770 5768 5765 5763 5760 5758 5756 5757 5759 5759 5760 5761 5761 5761 5762 5763 5765 5767 5769 5771 5773 5774 5776 5779 5782 5785 5787 5788 5790 5792 5793 5794 5794 5795 5795 5796 5797 5798 5798 5799 5800 5801 5802 5802
5771 5771 5771 5769 5767 5765 5762 5759 5757 5755 5753 5751 5752 5754 5755 5755 5756 5756 5756 5757 5758 5760 5762 5763 5765 5768 5769 5771 5774 5777 5779 5782 5783 5785 5786 5787 5788 5788 5789 5789 5790 5790 5791 5791 5792 5793 5794 5795 5795
5767 5767 5767 5765 5763 5760 5759 5756 5750 5749 5749 5747 5748 5750 5751 5751 5751 5752 5752 5752 5753 5755 5757 5758 5760 5763 5765 5767 5769 5772 5774 5776 5778 5779 5780 5781 5782 5783 5783 5784 5784 5784 5784 5785 5786 5786 5787 5788 5788
5764 5763 5763 5761 5759 5757 5755 5752 5749 5746 5743 5743 5744 5746 5746 5747 5747 5748 5748 5748 5749 5750 5752 5754 5756 5758 5760 5762 5765 5767 5769 5771 5772 5774 5775 5776 5776 5777 5778 5778 5778 5778 5779 5779 5779 5780 5780 5781 5781
5761 5760 5759 5758 5756 5754 5752 5751 5746 5744 5742 5741 5742 5742 5743 5743 5743 5744 5744 5744 5745 5746 5747 5749 5751 5753 5755 5757 5759 5761 5763 5765 5767 5768 5769 5770 5771 5771 5772 5772 5773 5773 5773 5773 5774 5774 5775 5775 5775
5757 5756 5756 5755 5753 5751 5749 5748 5742 5740 5738 5738 5738 5738 5738 5739 5739 5740 5740 5740 5741 5741 5742 5744 5746 5747 5749 5751 5753 5755 5757 5759 5760 5762 5763 5764 5765 5766 5766 5767 5767 5767 5767 5768 5768 5768 5768 5768 5768